This is the latest recevied weather packets stored in our database for station/object K7TSD. If no packets are shown the sender has not sent any weather packets the latest 10 day(s).
| Time | Temp. | Humidity | Pressure | Rain* | Wind** | Luminosity | Snow |
|---|---|---|---|---|---|---|---|
| 1777665489 | 15° C | 39% | 1017.3 hPa | 0 mm | - | 694 W/m² | - |
| 1777665184 | 14.44° C | 41% | 1017.4 hPa | 0 mm | - | 675 W/m² | - |
| 1777664880 | 14.44° C | 39% | 1017.4 hPa | 0 mm | - | 665 W/m² | - |
| 1777664576 | 14.44° C | 41% | 1017.4 hPa | 0 mm | - | 652 W/m² | - |
| 1777664273 | 15° C | 40% | 1017.5 hPa | 0 mm | - | 652 W/m² | - |
| 1777663971 | 13.89° C | 40% | 1017.3 hPa | 0 mm | - | 678 W/m² | - |
| 1777663668 | 14.44° C | 41% | 1017.3 hPa | 0 mm | - | 679 W/m² | - |
| 1777663364 | 13.89° C | 43% | 1017.5 hPa | 0 mm | - | 675 W/m² | - |
| 1777663062 | 14.44° C | 39% | 1017.3 hPa | 0 mm | - | 695 W/m² | - |
| 1777662760 | 13.89° C | 38% | 1017.4 hPa | 0 mm | - | 711 W/m² | - |
| 1777662456 | 13.89° C | 40% | 1017.4 hPa | 0 mm | - | 718 W/m² | - |
| 1777662151 | 13.89° C | 41% | 1017.4 hPa | 0 mm | - | 735 W/m² | - |
| 1777661848 | 13.89° C | 39% | 1017.4 hPa | 0 mm | - | 714 W/m² | - |
| 1777661544 | 13.89° C | 40% | 1017.4 hPa | 0 mm | - | 724 W/m² | - |
| 1777661240 | 13.89° C | 39% | 1017.5 hPa | 0 mm | - | 720 W/m² | - |
| 1777660935 | 13.89° C | 40% | 1017.8 hPa | 0 mm | - | 751 W/m² | - |
| 1777660632 | 13.89° C | 38% | 1017.6 hPa | 0 mm | - | 774 W/m² | - |
| 1777660329 | 13.89° C | 39% | 1017.6 hPa | 0 mm | - | 766 W/m² | - |
| 1777660025 | 13.89° C | 39% | 1017.4 hPa | 0 mm | - | 739 W/m² | - |
| 1777659722 | 13.89° C | 40% | 1017.5 hPa | 0 mm | - | 758 W/m² | - |
| 1777659418 | 13.89° C | 38% | 1017.6 hPa | 0 mm | - | 807 W/m² | - |
| 1777659116 | 14.44° C | 41% | 1017.3 hPa | 0 mm | - | 834 W/m² | - |
| 1777658814 | 14.44° C | 41% | 1017.4 hPa | 0 mm | - | 804 W/m² | - |
| 1777658509 | 13.89° C | 41% | 1017.3 hPa | 0 mm | - | 765 W/m² | - |
| 1777658206 | 13.89° C | 41% | 1017.5 hPa | 0 mm | - | 787 W/m² | - |
* Rain latest hour (hover to see other rain measurements)
** Current wind speed in m/s (hover to see current wind gust speed)